Parkersburg, WV

4:27 AM EDT on October 23, 2019 (GMT -0400)
Wood County Wilson

Weather History for KPKB - August, 2019

Change the Weather History Date:

Monday, August 26, 2019

  Actual Average Record
Temperature  
Mean Temperature 68 °F 72 °F  
Max Temperature 79 °F 84 °F 95 °F (1948)
Min Temperature 57 °F 61 °F 49 °F (1956)
Degree Days  
Heating Degree Days 0 0  
Month to date heating degree days 0 0  
Since 1 June heating degree days 16 20  
Since 1 July heating degree days 0 1  
Cooling Degree Days 3 8  
Month to date cooling degree days 223 226  
Year to date cooling degree days 920 793  
Since 1 June cooling degree days 775 709  
Growing Degree Days 18 (Base 50)    
Moisture  
Dew Point 59 °F    
Average Humidity 70    
Maximum Humidity 93    
Minimum Humidity 50    
Precipitation  
Precipitation 0.08 in 0.11 in 1.37 in (1940)
Month to date precipitation 3.48 3.05  
Year to date precipitation 32.92 28.23  
Sea Level Pressure  
Sea Level Pressure 30.06 in    
Wind  
Wind Speed 5 mph ()    
Max Wind Speed 13 mph    
Max Gust Speed 17 mph    
Visibility 9.8 miles    
Events Rain    
T = Trace of Precipitation, MM = Missing Value Source: Averaged Metar Reports

Daily Weather History Graph

Daily Weather History Graph

Search for Another Location

Airport or City:

Astronomy

Aug. 26, 2019 Rise Set
Actual Time 6:48 AM EDT 8:06 PM EDT
Civil Twilight 6:20 AM EDT 8:33 PM EDT
Nautical Twilight 5:47 AM EDT 9:07 PM EDT
Astronomical Twilight 5:12 AM EDT 9:42 PM EDT
Moon 2:13 AM EDT (8/26) 5:26 PM EDT (8/26)
Length of Visible Light 14h 13m
Length of Day
13h 17m
Waning Crescent, 19% of the Moon is Illuminated
Aug 26
Waning Crescent
Aug 30
New
Sep 5
First Quarter
Sep 14
Full
Sep 21
Last Quarter

Hourly Weather History & Observations

Time (EDT) Temp. Dew Point Humidity Pressure Visibility Wind Dir Wind Speed Gust Speed Precip Events Conditions
6:53 AM 57.2 °F 53.6 °F 88% 30.12 in 10.0 mi ESE 3.5 mph - N/A   Scattered Clouds
7:53 AM 59.0 °F 54.0 °F 83% 30.12 in 10.0 mi East 4.6 mph - N/A   Clear
8:53 AM 62.1 °F 54.0 °F 75% 30.13 in 10.0 mi ESE 4.6 mph - N/A   Clear
9:53 AM 66.9 °F 55.9 °F 68% 30.12 in 10.0 mi ESE 5.8 mph - N/A   Clear
10:53 AM 71.1 °F 55.9 °F 59% 30.11 in 10.0 mi SE 10.4 mph - N/A   Clear
11:53 AM 73.0 °F 57.0 °F 57% 30.09 in 10.0 mi SE 8.1 mph - N/A   Clear
12:08 PM 73.0 °F 57.0 °F 57% 30.10 in 10.0 mi SSE 8.1 mph - N/A   Clear
12:53 PM 75.9 °F 57.9 °F 54% 30.08 in 10.0 mi East 6.9 mph - N/A   Clear
1:53 PM 77.0 °F 57.9 °F 52% 30.06 in 10.0 mi SSE 8.1 mph - N/A   Clear
2:53 PM 78.1 °F 59.0 °F 52% 30.05 in 10.0 mi ESE 8.1 mph - N/A   Scattered Clouds
3:53 PM 77.0 °F 57.9 °F 52% 30.03 in 10.0 mi SSE 9.2 mph - N/A   Clear
4:53 PM 77.0 °F 59.0 °F 54% 30.02 in 10.0 mi SE 4.6 mph - N/A   Clear
5:53 PM 75.0 °F 61.0 °F 62% 30.01 in 10.0 mi SE 3.5 mph - 0.00 in Rain Light Rain
6:53 PM 70.0 °F 64.9 °F 84% 30.01 in 10.0 mi Calm Calm - 0.01 in Rain Light Rain
7:53 PM 70.0 °F 66.0 °F 87% 30.02 in 8.0 mi Calm Calm - 0.01 in Rain Light Rain
8:53 PM 68.0 °F 66.0 °F 93% 30.03 in 9.0 mi Calm Calm - 0.01 in Rain Light Rain
9:53 PM 66.9 °F 62.1 °F 84% 30.03 in 10.0 mi SSE 6.9 mph - 0.02 in Rain Light Rain
10:53 PM 66.0 °F 62.1 °F 87% 30.03 in 9.0 mi SSE 4.6 mph - 0.02 in Rain Light Rain
11:53 PM 64.9 °F 62.1 °F 90% 30.01 in 10.0 mi SE 5.8 mph - 0.01 in Rain Light Rain